SES-21

Last updated on Sun Jun 21 2026 00:03:08 GMT+0000 (Coordinated Universal Time)

1 53961U 22123B 26171.39489199 .00000000 00000+0 00000+0 0 9991 2 53961 0.0398 21.6419 0001006 72.4818 185.7194 1.00268958 7243
UTC large
Height (km)
Speed (km/s)
/
Latitude / Longitude
Inclination (degrees)
Orbital Period (minutes)
Azimuth
Elevation
Range (km)
Doppler Factor

Next 0 passes for location: London (51.5072 / 0.1276)

No passes found over London.
SES-21